This is the latest recevied weather packets stored in our database for station/object KD4EG. If no packets are shown the sender has not sent any weather packets the latest 10 day(s).
| Time | Temp. | Humidity | Pressure | Rain* | Wind** | Luminosity | Snow |
|---|---|---|---|---|---|---|---|
| 1788188105 | 29.44° C | 69% | 1023.5 hPa | 0 mm | - | 640 W/m² | - |
| 1788187801 | 28.89° C | 71% | 1023.3 hPa | 0 mm | - | 626 W/m² | - |
| 1788187496 | 28.33° C | 72% | 1023.3 hPa | 0 mm | - | 564 W/m² | - |
| 1788187191 | 28.33° C | 73% | 1023.2 hPa | 0 mm | - | 553 W/m² | - |
| 1788186880 | 27.78° C | 74% | 1023.3 hPa | 0 mm | - | 534 W/m² | - |
| 1788186576 | 27.78° C | 75% | 1023.4 hPa | 0 mm | - | 538 W/m² | - |
| 1788186272 | 27.22° C | 76% | 1023.5 hPa | 0 mm | - | 511 W/m² | - |
| 1788185966 | 27.78° C | 75% | 1023.6 hPa | 0 mm | - | 462 W/m² | - |
| 1788185660 | 27.22° C | 76% | 1023.4 hPa | 0 mm | - | 469 W/m² | - |
| 1788185356 | 27.22° C | 77% | 1023.4 hPa | 0 mm | - | 465 W/m² | - |
| 1788185050 | 26.11° C | 79% | 1023.4 hPa | 0 mm | - | 429 W/m² | - |
| 1788184749 | 26.11° C | 79% | 1023.5 hPa | 0 mm | - | 408 W/m² | - |
| 1788184449 | 26.11° C | 80% | 1023.5 hPa | 0 mm | - | 388 W/m² | - |
| 1788184144 | 26.11° C | 80% | 1023.5 hPa | 0 mm | - | 395 W/m² | - |
| 1788183841 | 25.56° C | 80% | 1023.7 hPa | 0 mm | - | 383 W/m² | - |
| 1788183539 | 25.56° C | 81% | 1023.6 hPa | 0 mm | - | 362 W/m² | - |
| 1788183234 | 25.56° C | 82% | 1023.5 hPa | 0 mm | - | 338 W/m² | - |
| 1788182929 | 25° C | 83% | 1023.7 hPa | 0 mm | - | 327 W/m² | - |
| 1788182619 | 25° C | 83% | 1023.8 hPa | 0 mm | - | 307 W/m² | - |
| 1788182318 | 25° C | 83% | 1023.5 hPa | 0 mm | - | 288 W/m² | - |
| 1788182015 | 25° C | 84% | 1023.8 hPa | 0 mm | - | 279 W/m² | - |
| 1788181709 | 24.44° C | 84% | 1023.5 hPa | 0 mm | - | 253 W/m² | - |
| 1788181405 | 24.44° C | 85% | 1023.8 hPa | 0 mm | - | 248 W/m² | - |
| 1788181104 | 24.44° C | 85% | 1023.9 hPa | 0 mm | - | 216 W/m² | - |
| 1788180800 | 24.44° C | 87% | 1023.7 hPa | 0 mm | - | 200 W/m² | - |
* Rain latest hour (hover to see other rain measurements)
** Current wind speed in m/s (hover to see current wind gust speed)